User: anonymous   Login
Location: Montauk Point State Park
(41.0718°N, 71.8593°W)
Time: 17:27:19
(UTC-04:00)
Language:

Cosmos 1844 - Orbit

View from above orbital plane
View from above orbital plane
View from above satellite
View from above satellite

Ground track
Ground track

The orbit data is extracted from the following two-line orbital elements,

1 17973U 87041A   14304.12414633  .00000015  00000-0  33405-4 0  8728
2 17973 070.8959 136.8351 0029358 128.3476 002.4042 14.13941279417434
Epoch (UTC): 31 October 2014 02:58:46
Eccentricity: 0.0029358
inclination: 70.8959°
perigee height: 825 km
apogee height: 867 km
right ascension of ascending node: 136.8351°
argument of perigee: 128.3476°
revolutions per day: 14.13941279
mean anomaly at epoch: 2.4042°
orbit number at epoch: 41743

The dashed part of the orbit path shows where the satellite is in the earth's shadow,  

DLR